Regional Weather Roundup
Issued by NWS

Home | Current Version | Previous Version | Text Only | Print | Product List | Glossary Off
Versions: 1 2 3 4 5 6 7 8 9 10 11 12 13 14 15 16 17 18 19 20 21 22 23 24 25 26 27 28 29 30 31 32 33 34 35 36 37 38 39 40 41 42 43 44 45 46 47 48 49 50

247
ASUS44 KMEG 200800
RWRTN
TENNESSEE HOURLY STATE WEATHER ROUNDUP
NATIONAL WEATHER SERVICE MEMPHIS TN
300 AM CDT WED SEP 20 2017

TNZ002-004-019-021-049-052-054-088>092-200900-
WEST TENNESSEE

CITY           SKY/WX    TMP DP  RH WIND       PRES   REMARKS
MEMPHIS INTL   CLEAR     76  72  87 S7        29.93S
NWS MEMPHIS      N/A     77 N/A N/A MISG        N/A
JACKSON        CLEAR     73  72  96 S6        29.95S
DYERSBURG      CLEAR     74  70  87 CALM      29.93S
$$

TNZ008-025-027-028-033-062-065-066-200900-
NORTH MIDDLE TENNESSEE

CITY           SKY/WX    TMP DP  RH WIND       PRES   REMARKS
NASHVILLE      CLEAR     69  66  90 CALM      29.98S
CLARKSVILLE    CLEAR     67  65  93 CALM      29.95F
SMYRNA           N/A    N/A N/A N/A MISG        N/A
CROSSVILLE     CLEAR     60  59  96 CALM      30.05S FOG
$$

TNZ061-075-076-078-094-096-097-200900-
SOUTH MIDDLE TENNESSEE

CITY           SKY/WX    TMP DP  RH WIND       PRES   REMARKS
TULLAHOMA      CLEAR     63  63 100 CALM      30.02S
WINCHESTER     CLEAR     63  63 100 CALM        N/A
MCMINNVILLE    CLOUDY    63  63 100 CALM      30.01S VSB 1/2
$$

TNZ017-018-042-046-047-200900-
NORTHEAST TENNESSEE

CITY           SKY/WX    TMP DP  RH WIND       PRES   REMARKS
TRI CITIES     CLEAR     61  60  97 CALM      30.03F FOG
$$

TNZ012-013-036-069-073-074-200900-
CENTRAL EAST TENNESSEE

CITY           SKY/WX    TMP DP  RH WIND       PRES   REMARKS
KNOXVILLE      CLEAR     63  61  93 CALM      30.00F
OAK RIDGE      CLOUDY    63  62  97 CALM      30.02F FOG
GATLINBURG     CLEAR     61  59  94 CALM      30.01S
$$

TNZ083-085-099-200900-
SOUTHEAST TENNESSEE

CITY           SKY/WX    TMP DP  RH WIND       PRES   REMARKS
CHATTANOOGA    FOG       66  66 100 CALM      30.02S VSB 1/2
$$

SKY/WX REPORTED AS FAIR MEANS FEW OR NO CLOUDS BELOW
12 THOUSAND FEET.





USA.gov is the U.S. government's official web portal to all federal, state and local government web resources and services.